GW5116 Weather Reports


time (UTC)temp
C
wind
direction
speed
KPH
gust
KPH
rain 1hr
cm
rain 24hr
cm
rain mn
cm
humidity
%
barometer
mb
20260504081644 5 347 0.0 0.0 0.00 0.03 0.03 99 1017.2
20260504081141 6 353 0.0 0.0 0.00 0.03 0.03 99 1017.2
20260504080637 6 344 0.0 0.0 0.00 0.03 0.03 99 1017.0
20260504080134 6 5 0.0 0.0 0.00 0.03 0.03 99 1017.0
20260504050450 6 356 0.0 0.0 0.00 0.00 0.00 89 1018.4
20260504045947 6 5 0.0 0.0 0.00 0.00 0.00 87 1018.3
20260504045443 6 347 0.0 0.0 0.00 0.00 0.00 84 1018.3
20260504044939 6 348 0.0 0.0 0.00 0.00 0.00 85 1018.3
20260504044437 6 354 0.0 0.0 0.00 0.00 0.00 85 1018.3
20260504043934 6 2 0.0 1.6 0.00 0.00 0.00 84 1018.2
20260504043431 6 14 1.6 1.6 0.00 0.00 0.00 85 1018.4
20260504042929 6 354 0.0 0.0 0.00 0.00 0.00 87 1018.2
20260504042425 6 347 0.0 0.0 0.00 0.00 0.00 86 1018.2
20260504041921 6 352 0.0 0.0 0.00 0.00 0.00 87 1017.9
20260504041418 6 353 0.0 0.0 0.00 0.00 0.00 87 1017.9
20260504040914 6 353 0.0 0.0 0.00 0.00 0.00 87 1018.2
20260504040412 6 347 0.0 0.0 0.00 0.00 0.00 87 1018.1
20260504035907 6 346 0.0 0.0 0.00 0.00 0.00 87 1017.9
20260504035405 6 351 0.0 0.0 0.00 0.00 0.00 87 1018.0
20260504034901 6 350 0.0 0.0 0.00 0.00 0.00 88 1018.1
20260504034359 5 348 0.0 0.0 0.00 0.00 0.00 88 1018.2
20260504033856 5 347 0.0 0.0 0.00 0.00 0.00 90 1018.1
20260504033354 5 348 0.0 0.0 0.00 0.00 0.00 89 1018.1
20260504032850 5 348 0.0 0.0 0.00 0.00 0.00 90 1018.0
20260504032347 5 348 0.0 0.0 0.00 0.00 0.00 89 1017.9
20260504031844 5 347 0.0 0.0 0.00 0.00 0.00 88 1017.9
20260504031341 5 348 0.0 0.0 0.00 0.00 0.00 90 1017.8
20260504030837 5 348 0.0 0.0 0.00 0.00 0.00 88 1017.8
20260504030335 5 348 0.0 0.0 0.00 0.00 0.00 88 1018.2
20260504025831 6 348 0.0 0.0 0.00 0.00 0.00 87 1017.9
20260504025328 6 348 0.0 0.0 0.00 0.00 0.00 87 1017.8
20260504024825 6 348 0.0 0.0 0.00 0.00 0.00 86 1017.9
20260504024321 6 348 0.0 0.0 0.00 0.00 0.00 86 1018.0
20260504023818 7 348 0.0 0.0 0.00 0.00 0.00 82 1017.8
20260504023315 7 347 0.0 0.0 0.00 0.00 0.00 82 1017.9
20260504022810 7 346 0.0 0.0 0.00 0.00 0.00 81 1017.7
20260504022308 8 349 0.0 0.0 0.00 0.00 0.00 80 1017.9
20260504021804 8 349 0.0 0.0 0.00 0.00 0.00 79 1017.7
20260504021302 8 348 0.0 0.0 0.00 0.00 0.00 76 1017.9
20260504020758 8 348 0.0 0.0 0.00 0.00 0.00 77 1017.6
20260504020255 8 352 0.0 0.0 0.00 0.00 0.00 75 1017.8
20260504015751 9 351 0.0 0.0 0.00 0.00 0.00 75 1017.8
20260504015248 9 351 0.0 0.0 0.00 0.00 0.00 72 1017.8
20260504014743 9 350 0.0 0.0 0.00 0.00 0.00 74 1017.8
20260504014240 9 351 0.0 0.0 0.00 0.00 0.00 75 1017.9
20260504013738 9 351 0.0 0.0 0.00 0.00 0.00 73 1018.0
20260504013235 10 351 0.0 0.0 0.00 0.00 0.00 72 1017.9
20260504012731 10 352 0.0 0.0 0.00 0.00 0.00 75 1018.0
20260504012229 10 351 0.0 0.0 0.00 0.00 0.00 72 1017.9
20260504011726 10 351 0.0 0.0 0.00 0.00 0.00 73 1017.8
20260504011223 10 351 0.0 0.0 0.00 0.00 0.00 70 1017.7
20260504010719 10 351 0.0 0.0 0.00 0.00 0.00 72 1017.8
20260504010215 11 351 0.0 0.0 0.00 0.00 0.00 66 1017.6
20260504005711 11 351 0.0 0.0 0.00 0.00 0.00 71 1017.7
20260504005209 11 351 0.0 0.0 0.00 0.00 0.00 75 1017.8
20260504004706 11 349 0.0 0.0 0.00 0.00 0.00 70 1017.6
20260504004203 11 350 0.0 0.0 0.00 0.00 0.00 64 1017.6
20260504003700 11 350 0.0 0.0 0.00 0.00 0.00 65 1017.7
20260504003156 11 326 0.0 0.0 0.00 0.00 0.00 66 1017.6
20260504002653 11 317 0.0 0.0 0.00 0.00 0.00 64 1017.5
20260504002150 12 24 0.0 0.0 0.00 0.00 0.00 67 1017.8
20260504001649 12 30 0.0 0.0 0.00 0.00 0.00 64 1017.5
20260504001144 12 41 0.0 0.0 0.00 0.00 0.00 61 1017.5
20260504000641 12 40 0.0 0.0 0.00 0.00 0.00 59 1017.5
20260504000139 13 77 0.0 0.0 0.00 0.00 0.00 59 1017.4
20260503235637 13 283 0.0 0.0 0.00 0.00 0.00 59 1017.5
20260503235133 13 306 0.0 0.0 0.00 0.00 0.00 63 1017.6
20260503234631 13 315 0.0 0.0 0.00 0.00 0.00 50 1017.8
20260503234129 13 319 0.0 0.0 0.00 0.00 0.00 51 1017.7
20260503233626 13 319 0.0 0.0 0.00 0.00 0.00 52 1017.6
20260503233121 13 320 0.0 0.0 0.00 0.00 0.00 49 1017.9
20260503232619 14 345 0.0 0.0 0.00 0.00 0.00 53 1017.9
20260503232116 14 40 0.0 0.0 0.00 0.00 0.00 51 1018.0
20260503231614 14 68 0.0 0.0 0.00 0.00 0.00 54 1018.0
20260503231110 14 173 0.0 0.0 0.00 0.00 0.00 51 1018.1
20260503230607 15 72 0.0 0.0 0.00 0.00 0.00 45 1018.2
20260503230104 15 40 0.0 0.0 0.00 0.00 0.00 49 1018.1
20260503225601 15 79 0.0 0.0 0.00 0.00 0.00 42 1018.2
20260503225056 15 5 0.0 1.6 0.00 0.00 0.00 35 1018.1
20260503224554 15 103 1.6 3.2 0.00 0.00 0.00 35 1017.9
20260503224052 15 353 3.2 4.8 0.00 0.00 0.00 34 1018.1
20260503223550 15 80 0.0 9.7 0.00 0.00 0.00 33 1018.1
20260503223045 15 120 3.2 6.4 0.00 0.00 0.00 35 1018.1
20260503222543 15 75 6.4 14.5 0.00 0.00 0.00 33 1018.2
20260503222041 15 99 8.0 11.3 0.00 0.00 0.00 33 1018.2
20260503221539 15 120 4.8 14.5 0.00 0.00 0.00 33 1018.3
20260503221036 16 111 4.8 12.9 0.00 0.00 0.00 33 1018.3
20260503220532 16 123 4.8 9.7 0.00 0.00 0.00 31 1018.3
20260503220029 16 72 3.2 4.8 0.00 0.00 0.00 31 1018.1
20260503215526 16 109 12.9 17.7 0.00 0.00 0.00 31 1018.2
20260503215023 16 118 1.6 4.8 0.00 0.00 0.00 32 1018.2
20260503214521 16 99 6.4 14.5 0.00 0.00 0.00 30 1018.3
20260503214018 16 152 6.4 12.9 0.00 0.00 0.00 31 1018.1
20260503213516 16 130 4.8 17.7 0.00 0.00 0.00 31 1018.3
20260503213013 16 11 0.0 4.8 0.00 0.00 0.00 33 1018.2
20260503212510 17 124 1.6 12.9 0.00 0.00 0.00 29 1018.1
20260503212007 16 144 3.2 12.9 0.00 0.00 0.00 30 1018.1
20260503211504 16 133 11.3 17.7 0.00 0.00 0.00 30 1018.1
20260503211000 16 118 6.4 16.1 0.00 0.00 0.00 31 1018.3
20260503210457 16 163 4.8 9.7 0.00 0.00 0.00 30 1018.2
20260503205957 16 94 4.8 11.3 0.00 0.00 0.00 31 1018.4
20260503205454 16 90 0.0 14.5 0.00 0.00 0.00 32 1018.1
20260503204951 16 114 16.1 20.9 0.00 0.00 0.00 32 1018.3
20260503204448 16 59 3.2 11.3 0.00 0.00 0.00 33 1018.5
20260503203945 17 52 3.2 11.3 0.00 0.00 0.00 34 1018.4
20260503203443 16 120 6.4 12.9 0.00 0.00 0.00 33 1018.8
20260503202939 16 58 3.2 9.7 0.00 0.00 0.00 31 1018.6
20260503202437 16 128 1.6 4.8 0.00 0.00 0.00 30 1018.6
20260503201936 16 134 6.4 14.5 0.00 0.00 0.00 32 1018.8
20260503201432 16 64 3.2 3.2 0.00 0.00 0.00 36 1018.7
20260503200930 16 118 6.4 12.9 0.00 0.00 0.00 36 1018.9
20260503200426 16 101 9.7 14.5 0.00 0.00 0.00 33 1019.1
20260503195923 16 70 6.4 17.7 0.00 0.00 0.00 31 1019.1
20260503195420 16 54 4.8 6.4 0.00 0.00 0.00 37 1019.5
20260503194916 16 21 8.0 11.3 0.00 0.00 0.00 34 1019.3
20260503194413 16 83 8.0 9.7 0.00 0.00 0.00 35 1019.6
20260503193909 16 292 3.2 6.4 0.00 0.00 0.00 35 1019.6
20260503193404 15 36 0.0 4.8 0.00 0.00 0.00 34 1019.8
20260503192900 15 66 9.7 17.7 0.00 0.00 0.00 35 1020.2
20260503192356 16 57 3.2 9.7 0.00 0.00 0.00 32 1019.9
20260503191853 15 22 6.4 11.3 0.00 0.00 0.00 37 1020.3
20260503191350 15 281 1.6 22.5 0.00 0.00 0.00 32 1020.3
20260503190846 15 107 6.4 20.9 0.00 0.00 0.00 35 1020.5
20260503190344 16 100 3.2 6.4 0.00 0.00 0.00 34 1020.5
20260503185841 15 62 4.8 12.9 0.00 0.00 0.00 32 1020.4
20260503185337 15 120 4.8 14.5 0.00 0.00 0.00 33 1020.7
20260503184836 15 69 3.2 4.8 0.00 0.00 0.00 37 1020.7
20260503184333 16 341 1.6 4.8 0.00 0.00 0.00 33 1020.4
20260503183828 14 64 3.2 12.9 0.00 0.00 0.00 35 1020.8
20260503183326 14 232 8.0 11.3 0.00 0.00 0.00 35 1021.1
20260503182823 14 43 6.4 11.3 0.00 0.00 0.00 34 1021.0
20260503182322 14 322 1.6 9.7 0.00 0.00 0.00 33 1020.9
20260503181819 14 164 1.6 6.4 0.00 0.00 0.00 37 1021.0
20260503181316 14 114 6.4 12.9 0.00 0.00 0.00 36 1020.9
20260503180812 15 127 3.2 11.3 0.00 0.00 0.00 36 1021.2
20260503180311 15 247 0.0 6.4 0.00 0.00 0.00 34 1021.0
20260503175806 15 354 3.2 4.8 0.00 0.00 0.00 42 1021.3
20260503175305 13 120 3.2 3.2 0.00 0.00 0.00 39 1021.1
20260503174805 13 291 1.6 3.2 0.00 0.00 0.00 35 1021.1
20260503174304 13 36 3.2 12.9 0.00 0.00 0.00 37 1021.3
20260503173759 13 53 4.8 12.9 0.00 0.00 0.00 34 1021.5
20260503173255 13 29 0.0 14.5 0.00 0.00 0.00 34 1021.4
20260503172752 13 61 8.0 11.3 0.00 0.00 0.00 37 1021.5
20260503172249 13 93 1.6 9.7 0.00 0.00 0.00 37 1021.6
20260503171746 13 49 3.2 9.7 0.00 0.00 0.00 36 1021.6
20260503171243 13 281 1.6 9.7 0.00 0.00 0.00 36 1021.6
20260503170740 13 106 3.2 6.4 0.00 0.00 0.00 38 1021.7
20260503170237 13 145 6.4 9.7 0.00 0.00 0.00 40 1021.9
20260503160159 12 125 4.8 9.7 0.00 0.00 0.00 40 1022.5
20260503150629 12 68 8.0 11.3 0.00 0.00 0.00 41 1023.1
20260503150125 11 25 6.4 9.7 0.00 0.00 0.00 44 1023.1
20260503131019 5 97 0.0 1.6 0.00 0.00 0.00 85 1023.3
20260503130516 5 118 1.6 1.6 0.00 0.00 0.00 85 1023.1
20260503110412 -2 278 0.0 0.0 0.00 0.00 0.00 99 1022.2